Regional Weather Roundup
Issued by NWS Bismarck, ND

Home | Current Version | Previous Version | Text Only | Print | Product List | Glossary On
Versions: 1 2 3 4 5 6 7 8 9 10 11 12 13 14 15 16 17 18 19 20 21 22 23 24 25 26 27 28 29 30 31 32 33 34 35 36 37 38 39 40 41 42 43 44 45 46 47 48 49 50
095
ASUS43 KBIS 230310
RWRBIS

NWR BROADCAST TEXT
NATIONAL WEATHER SERVICE BISMARCK ND
900 PM CST WED FEB 22 2017

NOTE: "FAIR" INDICATES FEW OR NO CLOUDS BELOW 12,000 FEET WITH NO
SIGNIFICANT WEATHER AND/OR OBSTRUCTIONS TO VISIBILITY.


CITY           SKY/WX    TMP DP  RH WIND       PRES   REMARKS
WILLISTON      CLOUDY    30  25  81 VRB3      30.00S
MINOT          MOCLDY    31  25  78 W8        29.96S
MINOT AFB      MOCLDY    29  26  88 W7        29.96R
BISMARCK       CLOUDY    34  28  79 N8        29.98R
DICKINSON      CLOUDY    27  23  85 N5        29.95R
GARRISON         N/A     26  23  88 NW8       29.97R WCI  18
HETTINGER ARPT LGT SNOW  29  27  92 NE9       29.96R FOG
JAMESTOWN      FAIR      26  23  88 NW7       29.93R WCI  18
CARRINGTON     FAIR      28  27  93 NW8       29.97R
HAZEN          CLOUDY   N/A N/A N/A N5        30.00S
MANDAN         CLOUDY    32  28  86 N10       29.97R
RUGBY            N/A     23  23 100 W6        29.96R WCI  16
STANLEY        MOCLDY    25  25 100 NW6       29.99R WCI  18
TIOGA          MOCLDY    27  27 100 W6        29.99S WCI  20
WATFORD CITY   FAIR      27  25  93 CALM      30.00R
$$

CITY           SKY/WX    TMP DP  RH WIND       PRES   REMARKS
GRAND FORKS    FAIR      30  23  75 NW8       29.92R
GRAND FORKS AF FAIR      30  26  83 N12       29.93R
DEVILS LAKE    CLOUDY    30  26  85 W7        29.94R
FARGO          FAIR      32  29  88 N13       29.90R
CAVALIER         N/A     28  23  80 NW9       29.94R WCI  20
GRAFTON        FAIR      28  27  93 N10       29.95R WCI  19
GWINNER        FAIR      30  28  93 N9        29.92R
ROLLA          FAIR      19  19 100 W7        29.94R WCI  10
$$

CITY           SKY/WX    TMP DP  RH WIND       PRES   REMARKS
ABERDEEN       CLOUDY    32  25  75 N14       29.95R
MOBRIDGE       CLOUDY    34  27  75 N8        29.93R
BUFFALO          N/A     32  30  92 NE6       29.87R
RAPID CITY     CLOUDY    33  27  78 N18       29.88S
GLASGOW        FAIR      26  24  92 NE7       30.00R WCI  18
SIDNEY         CLOUDY    29  27  92 NW3       30.01R
WOLF POINT     CLOUDY    30  27  88 CALM      30.02R
GLENDIVE       CLOUDY    28  26  92 CALM      30.00R
MILES CITY     CLOUDY    31  25  78 NE7       29.98R
BAKER          FLURRIES  29  26  89 N6        29.95S
$$

CITY           SKY/WX    TMP DP  RH WIND       PRES   REMARKS
BILLINGS       LGT SNOW  31  31 100 NE12      29.91S VSB 1
GREAT FALLS    CLOUDY    31  26  82 N8        29.94S
REGINA         CLOUDY    30  28  93 N9        29.98S
ESTEVAN        CLOUDY    30  28  93 W8        29.98R
$$





USA.gov is the U.S. government's official web portal to all federal, state and local government web resources and services.